GFSNE_700_temp_195.txt.gz
Temp
-4 -4 -4 -4 -4 -4 -5 -5 -6 -6 -7 -6 -6 -6 -7 -7 -6 -6 -6 -6 -6 -6 -6 -6 -6 -6 -6 -6 -5 -5 -4 -4 -4 -4 -3 -3 -3 -3
-4 -5 -5 -5 -5 -5 -6 -6 -6 -7 -7 -7 -7 -7 -7 -8 -8 -7 -7 -7 -7 -7 -7 -7 -7 -7 -7 -7 -7 -6 -6 -5 -5 -5 -4 -3 -3 -3
-5 -5 -6 -6 -6 -6 -6 -7 -7 -7 -7 -8 -8 -8 -8 -7 -8 -8 -8 -8 -8 -7 -8 -8 -8 -7 -7 -7 -7 -7 -7 -7 -6 -5 -5 -4 -4 -4
-6 -6 -7 -7 -7 -7 -7 -7 -7 -8 -8 -8 -8 -9 -9 -9 -8 -8 -8 -9 -9 -9 -8 -8 -8 -8 -8 -8 -8 -8 -8 -8 -8 -7 -7 -6 -5 -4
-7 -7 -8 -8 -7 -7 -8 -8 -8 -8 -9 -9 -9 -9 -9 -9 -9 -9 -9 -9 -9 -9 -9 -9 -9 -9 -9 -9 -9 -9 -9 -9 -9 -8 -7 -7 -6 -5
-7 -7 -9 -9 -8 -8 -9 -9 -9 -9 -9 -10 -10 -10 -10 -10 -10 -10 -10 -10 -10 -10 -10 -10 -10 -10 -10 -10 -10 -10 -10 -10 -10 -9 -9 -8 -7 -6
-7 -8 -10 -9 -9 -9 -9 -9 -9 -10 -10 -10 -11 -11 -11 -11 -11 -11 -11 -11 -11 -11 -11 -11 -11 -11 -11 -11 -11 -11 -11 -11 -11 -10 -10 -9 -8 -7
-8 -9 -9 -10 -10 -10 -9 -10 -10 -10 -10 -11 -11 -11 -12 -12 -12 -12 -12 -12 -11 -12 -12 -12 -12 -12 -12 -12 -12 -12 -12 -12 -12 -11 -11 -10 -9 -9
-9 -9 -9 -11 -10 -10 -10 -11 -11 -11 -11 -12 -12 -12 -12 -12 -13 -13 -13 -13 -13 -13 -13 -12 -13 -13 -13 -13 -13 -13 -14 -14 -14 -13 -13 -12 -11 -10
-9 -9 -10 -10 -10 -10 -11 -11 -11 -12 -12 -12 -13 -12 -13 -13 -13 -14 -14 -13 -14 -14 -15 -14 -14 -14 -13 -14 -14 -15 -15 -15 -15 -15 -14 -13 -12 -11
-10 -10 -10 -10 -11 -11 -11 -12 -12 -12 -13 -13 -13 -13 -14 -14 -14 -15 -15 -15 -14 -15 -16 -16 -15 -15 -15 -14 -15 -16 -16 -16 -16 -16 -16 -15 -14 -12
-11 -10 -11 -11 -12 -12 -12 -13 -13 -13 -13 -14 -14 -14 -14 -15 -15 -15 -16 -16 -16 -15 -17 -17 -16 -17 -16 -16 -16 -17 -17 -17 -17 -17 -17 -17 -16 -14
-11 -11 -11 -12 -12 -13 -13 -13 -13 -14 -14 -14 -14 -15 -15 -16 -16 -16 -17 -17 -17 -17 -18 -18 -18 -18 -19 -18 -17 -18 -18 -17 -18 -18 -18 -17 -17 -16
-11 -11 -11 -13 -13 -13 -13 -14 -14 -14 -15 -15 -16 -16 -16 -17 -17 -17 -17 -18 -18 -18 -19 -19 -19 -20 -19 -19 -18 -18 -18 -18 -19 -18 -18 -17 -17 -16
-12 -12 -12 -13 -14 -14 -14 -15 -15 -15 -16 -16 -17 -17 -17 -18 -18 -18 -18 -18 -18 -19 -20 -20 -21 -20 -21 -20 -20 -19 -19 -19 -19 -19 -18 -18 -17 -17
-12 -13 -13 -14 -14 -14 -15 -15 -16 -17 -17 -17 -17 -18 -18 -18 -18 -19 -19 -19 -19 -19 -20 -21 -21 -21 -21 -21 -21 -20 -21 -20 -20 -19 -19 -18 -18 -17
-13 -14 -14 -14 -15 -16 -16 -16 -17 -17 -18 -18 -18 -19 -19 -19 -19 -19 -20 -20 -20 -20 -20 -21 -22 -22 -22 -22 -21 -21 -21 -20 -20 -20 -20 -18 -17 -17
-14 -15 -15 -15 -16 -16 -17 -17 -18 -18 -19 -19 -19 -19 -19 -19 -20 -20 -21 -21 -21 -21 -21 -22 -22 -22 -22 -21 -22 -22 -22 -21 -20 -20 -20 -19 -17 -17
-15 -16 -16 -16 -17 -17 -18 -18 -19 -19 -19 -20 -20 -20 -20 -20 -20 -21 -21 -21 -22 -22 -22 -22 -22 -23 -22 -21 -21 -22 -22 -21 -20 -20 -19 -19 -17 -16
-16 -16 -17 -17 -17 -18 -18 -19 -19 -20 -20 -20 -20 -20 -21 -21 -21 -21 -22 -22 -23 -22 -22 -22 -23 -23 -23 -23 -21 -20 -22 -21 -21 -19 -18 -18 -17 -16
-16 -16 -17 -17 -18 -19 -19 -20 -20 -20 -20 -20 -21 -21 -21 -22 -22 -22 -22 -23 -23 -23 -23 -22 -23 -23 -23 -23 -22 -21 -20 -21 -21 -20 -19 -18 -16 -16
-17 -17 -18 -18 -19 -19 -20 -20 -20 -21 -21 -21 -21 -22 -22 -22 -22 -23 -23 -23 -23 -23 -23 -23 -23 -23 -23 -23 -22 -21 -20 -20 -20 -20 -19 -18 -17 -15
-17 -18 -19 -19 -20 -20 -20 -21 -21 -21 -21 -22 -22 -22 -22 -23 -23 -23 -23 -23 -23 -23 -24 -23 -23 -23 -23 -23 -22 -21 -21 -20 -19 -18 -17 -18 -17 -15

GFSNE_700_temp_198.txt.gz
Temp
-2 -3 -4 -5 -4 -4 -4 -4 -5 -5 -6 -5 -5 -5 -6 -6 -6 -6 -6 -6 -6 -6 -6 -6 -6 -5 -5 -5 -5 -5 -5 -5 -5 -5 -4 -4 -4 -4
-3 -4 -4 -6 -6 -6 -6 -5 -5 -5 -6 -6 -6 -6 -7 -7 -7 -7 -7 -7 -7 -7 -7 -7 -7 -7 -6 -7 -7 -6 -6 -6 -6 -5 -5 -5 -5 -4
-5 -5 -6 -6 -6 -6 -7 -7 -6 -6 -6 -7 -7 -7 -7 -7 -7 -8 -8 -8 -8 -8 -8 -8 -8 -8 -8 -7 -8 -8 -7 -7 -7 -7 -6 -6 -6 -6
-6 -6 -6 -6 -6 -6 -6 -7 -6 -7 -7 -7 -7 -8 -8 -8 -8 -8 -8 -9 -9 -9 -9 -9 -8 -8 -8 -8 -8 -8 -8 -8 -8 -8 -8 -7 -6 -6
-7 -6 -7 -8 -6 -6 -7 -9 -8 -7 -7 -8 -8 -8 -8 -8 -8 -8 -9 -9 -9 -10 -10 -10 -10 -9 -10 -10 -10 -10 -10 -9 -9 -9 -9 -9 -8 -7
-7 -7 -7 -7 -7 -7 -10 -10 -10 -8 -8 -8 -9 -9 -9 -10 -9 -9 -10 -10 -10 -11 -11 -11 -11 -11 -10 -11 -11 -11 -10 -10 -10 -10 -10 -10 -10 -9
-7 -7 -7 -8 -8 -7 -10 -10 -10 -10 -9 -9 -9 -10 -10 -10 -10 -10 -11 -11 -11 -11 -11 -11 -11 -11 -11 -11 -12 -12 -12 -11 -12 -11 -11 -10 -10 -10
-7 -8 -9 -8 -8 -8 -10 -11 -11 -9 -10 -10 -10 -11 -11 -11 -12 -12 -12 -12 -12 -12 -12 -11 -12 -12 -12 -12 -12 -13 -13 -13 -13 -12 -12 -11 -11 -10
-8 -9 -9 -9 -9 -9 -10 -12 -10 -10 -10 -10 -11 -11 -12 -12 -13 -13 -13 -13 -13 -13 -13 -12 -13 -12 -12 -12 -13 -13 -14 -14 -14 -13 -13 -13 -12 -12
-9 -9 -9 -9 -10 -10 -11 -10 -10 -10 -11 -11 -12 -12 -12 -13 -13 -13 -14 -13 -14 -14 -14 -14 -14 -13 -13 -13 -14 -15 -15 -15 -15 -15 -15 -14 -14 -13
-10 -10 -10 -10 -11 -11 -11 -11 -11 -11 -11 -12 -13 -13 -14 -14 -14 -14 -14 -14 -14 -14 -15 -15 -14 -14 -14 -14 -15 -15 -16 -16 -16 -16 -16 -16 -16 -15
-10 -10 -10 -10 -11 -11 -11 -11 -11 -12 -12 -13 -13 -14 -14 -14 -15 -15 -14 -14 -15 -15 -16 -16 -15 -16 -14 -15 -15 -16 -16 -17 -17 -17 -18 -18 -17 -16
-11 -10 -12 -11 -11 -11 -12 -12 -12 -13 -13 -14 -14 -14 -15 -15 -15 -15 -16 -16 -16 -16 -17 -17 -17 -17 -18 -16 -16 -17 -17 -17 -18 -18 -18 -18 -18 -18
-10 -10 -11 -12 -12 -12 -12 -13 -13 -14 -14 -14 -14 -15 -15 -15 -16 -17 -17 -17 -18 -17 -17 -18 -18 -18 -18 -17 -17 -18 -18 -18 -19 -19 -19 -19 -19 -19
-11 -11 -11 -12 -12 -12 -13 -14 -14 -14 -14 -15 -15 -15 -16 -17 -17 -17 -17 -18 -18 -18 -19 -19 -19 -19 -20 -19 -19 -19 -19 -19 -20 -20 -20 -19 -19 -18
-12 -12 -12 -12 -12 -13 -14 -14 -14 -15 -15 -15 -16 -17 -17 -17 -17 -18 -18 -18 -18 -18 -19 -20 -20 -21 -20 -21 -21 -20 -21 -20 -20 -20 -20 -19 -19 -19
-13 -12 -13 -13 -13 -14 -15 -14 -14 -15 -16 -17 -18 -17 -18 -18 -18 -19 -19 -19 -19 -19 -19 -20 -21 -21 -21 -22 -21 -22 -21 -20 -21 -21 -21 -19 -19 -19
-13 -13 -13 -13 -13 -14 -15 -16 -16 -17 -18 -18 -18 -18 -19 -19 -19 -19 -19 -20 -20 -20 -20 -21 -21 -21 -21 -21 -22 -22 -22 -21 -22 -22 -21 -20 -18 -19
-12 -13 -14 -14 -15 -16 -16 -17 -18 -18 -19 -19 -19 -19 -19 -20 -20 -20 -20 -20 -20 -21 -21 -22 -22 -22 -21 -21 -21 -23 -22 -22 -22 -21 -21 -20 -19 -19
-14 -14 -15 -16 -16 -17 -18 -18 -19 -19 -19 -19 -20 -20 -20 -20 -20 -20 -21 -21 -21 -21 -21 -22 -23 -23 -23 -22 -21 -21 -23 -22 -22 -21 -20 -20 -19 -19
-15 -16 -16 -17 -17 -18 -18 -19 -19 -19 -20 -20 -20 -20 -21 -21 -21 -21 -22 -22 -22 -22 -22 -22 -23 -23 -23 -23 -22 -22 -22 -23 -23 -22 -20 -20 -19 -18
-16 -16 -17 -18 -18 -19 -19 -19 -20 -20 -20 -21 -21 -21 -21 -21 -22 -22 -22 -22 -23 -23 -23 -23 -23 -23 -23 -24 -23 -22 -21 -22 -22 -22 -22 -21 -20 -17
-15 -16 -17 -18 -19 -19 -19 -20 -20 -21 -21 -21 -21 -21 -22 -22 -22 -23 -23 -23 -23 -23 -24 -23 -23 -24 -24 -24 -23 -23 -22 -22 -21 -20 -20 -20 -20 -19

GFSNE_700_temp_201.txt.gz
Temp
-2 -2 -3 -3 -3 -3 -4 -5 -5 -6 -5 -5 -4 -4 -4 -4 -5 -5 -6 -6 -6 -6 -6 -6 -6 -6 -5 -5 -6 -6 -6 -6 -5 -5 -4 -3 -3 -4
-3 -5 -5 -5 -5 -6 -6 -5 -5 -7 -6 -7 -6 -5 -5 -5 -6 -6 -7 -7 -6 -7 -7 -6 -6 -6 -6 -7 -7 -7 -7 -7 -6 -6 -6 -5 -4 -4
-6 -6 -7 -7 -7 -6 -6 -6 -6 -6 -7 -9 -8 -6 -6 -6 -7 -7 -7 -7 -8 -8 -8 -8 -7 -7 -8 -8 -8 -9 -8 -9 -8 -8 -7 -7 -6 -5
-5 -6 -7 -8 -7 -7 -7 -6 -6 -6 -6 -10 -9 -8 -7 -7 -7 -7 -8 -8 -8 -9 -9 -9 -8 -8 -8 -8 -8 -9 -9 -9 -9 -9 -9 -8 -8 -7
-6 -7 -8 -8 -7 -7 -7 -7 -6 -6 -6 -10 -10 -10 -9 -8 -8 -8 -8 -8 -9 -9 -9 -9 -9 -10 -9 -9 -10 -10 -10 -10 -10 -10 -10 -9 -9 -9
-7 -9 -8 -8 -7 -7 -7 -7 -7 -7 -8 -10 -10 -11 -10 -9 -8 -8 -9 -9 -10 -10 -9 -10 -11 -11 -11 -11 -11 -11 -11 -11 -11 -11 -11 -10 -10 -10
-8 -8 -8 -7 -8 -8 -8 -8 -8 -8 -8 -10 -11 -12 -10 -9 -9 -9 -9 -9 -10 -10 -10 -11 -11 -11 -12 -12 -12 -12 -12 -12 -12 -12 -12 -12 -11 -11
-7 -8 -8 -8 -8 -9 -9 -8 -8 -8 -9 -10 -11 -10 -10 -10 -10 -10 -10 -10 -11 -11 -11 -12 -12 -12 -12 -12 -13 -13 -13 -13 -13 -12 -12 -12 -12 -12
-8 -8 -8 -9 -9 -9 -9 -9 -9 -10 -10 -11 -11 -11 -11 -11 -10 -11 -11 -11 -12 -12 -12 -12 -13 -13 -13 -13 -13 -14 -14 -14 -14 -13 -13 -13 -13 -12
-8 -9 -9 -9 -9 -10 -10 -10 -10 -10 -11 -11 -11 -11 -11 -11 -12 -12 -12 -12 -13 -13 -13 -13 -13 -13 -13 -13 -14 -14 -15 -15 -14 -14 -14 -14 -14 -14
-9 -10 -10 -10 -10 -10 -10 -10 -11 -11 -11 -11 -11 -12 -12 -12 -13 -13 -13 -13 -13 -14 -14 -14 -14 -13 -13 -13 -14 -15 -15 -16 -16 -15 -15 -15 -15 -15
-10 -10 -10 -11 -11 -11 -11 -11 -11 -11 -11 -12 -12 -12 -13 -13 -13 -14 -14 -14 -14 -13 -14 -14 -14 -15 -13 -14 -15 -15 -16 -17 -17 -17 -17 -17 -17 -16
-10 -11 -11 -11 -11 -11 -12 -11 -12 -12 -12 -13 -13 -13 -13 -14 -14 -15 -15 -15 -15 -15 -16 -16 -16 -16 -17 -16 -15 -16 -16 -17 -18 -18 -18 -18 -18 -18
-11 -11 -11 -12 -12 -11 -12 -12 -12 -13 -13 -13 -14 -14 -14 -15 -15 -15 -15 -16 -16 -16 -17 -18 -17 -17 -17 -17 -17 -17 -17 -18 -19 -18 -18 -19 -19 -19
-11 -11 -12 -12 -12 -12 -12 -12 -13 -14 -14 -14 -14 -15 -16 -16 -16 -15 -16 -16 -17 -17 -18 -19 -19 -19 -19 -18 -18 -18 -18 -19 -19 -19 -19 -19 -19 -19
-12 -11 -11 -12 -12 -13 -13 -13 -13 -14 -14 -15 -15 -16 -15 -15 -16 -16 -17 -17 -17 -18 -19 -19 -20 -20 -20 -20 -20 -19 -20 -20 -19 -19 -20 -20 -20 -20
-12 -12 -12 -13 -13 -13 -13 -14 -14 -15 -15 -14 -15 -15 -16 -16 -17 -17 -18 -18 -18 -18 -19 -20 -21 -21 -21 -21 -21 -21 -21 -21 -20 -20 -20 -20 -20 -20
-12 -12 -13 -13 -14 -14 -14 -14 -14 -14 -15 -16 -16 -17 -17 -17 -18 -18 -19 -19 -19 -19 -20 -20 -20 -21 -21 -21 -22 -22 -21 -21 -21 -21 -21 -21 -20 -20
-13 -13 -14 -14 -14 -14 -14 -14 -15 -16 -17 -17 -17 -18 -18 -19 -19 -19 -20 -20 -20 -20 -20 -21 -21 -22 -21 -20 -21 -23 -22 -22 -21 -21 -22 -21 -21 -20
-13 -13 -13 -13 -14 -14 -15 -16 -17 -17 -17 -18 -18 -19 -19 -20 -20 -20 -20 -20 -20 -21 -21 -22 -22 -23 -23 -22 -21 -22 -23 -23 -22 -21 -21 -21 -21 -20
-13 -14 -14 -14 -15 -16 -16 -17 -17 -18 -18 -19 -19 -20 -20 -20 -20 -21 -21 -21 -21 -22 -22 -22 -23 -23 -23 -23 -22 -23 -22 -24 -24 -23 -22 -21 -20 -19
-14 -14 -14 -15 -16 -16 -17 -17 -18 -19 -19 -20 -20 -20 -21 -21 -21 -21 -22 -22 -22 -22 -23 -23 -23 -23 -24 -24 -23 -23 -22 -23 -24 -23 -23 -23 -22 -19
-14 -15 -16 -16 -16 -17 -18 -18 -19 -19 -20 -20 -21 -21 -21 -22 -22 -22 -22 -22 -23 -23 -23 -23 -23 -24 -24 -24 -24 -23 -23 -23 -23 -22 -22 -23 -22 -21

GFSNE_700_temp_207.txt.gz
Temp
-1 -3 -4 -4 -4 -3 -3 -4 -4 -6 -6 -6 -6 -7 -7 -7 -6 -6 -6 -6 -7 -6 -6 -6 -6 -6 -6 -6 -6 -6 -6 -6 -6 -6 -5 -5 -5 -5
-3 -3 -4 -5 -4 -5 -6 -7 -7 -6 -8 -7 -7 -7 -7 -7 -6 -6 -7 -7 -9 -8 -7 -7 -7 -6 -6 -7 -7 -7 -7 -6 -6 -6 -6 -6 -6 -5
-2 -3 -4 -6 -6 -5 -5 -7 -6 -6 -7 -6 -6 -6 -7 -7 -7 -7 -7 -8 -9 -9 -8 -8 -8 -7 -7 -7 -7 -7 -7 -7 -7 -7 -7 -7 -7 -6
-2 -3 -4 -4 -5 -4 -5 -5 -6 -7 -6 -6 -6 -7 -8 -7 -7 -8 -9 -9 -11 -11 -9 -10 -9 -9 -8 -8 -8 -8 -8 -8 -8 -8 -7 -7 -7 -7
-3 -3 -4 -4 -4 -5 -6 -6 -6 -7 -6 -7 -7 -8 -8 -8 -8 -9 -10 -10 -10 -11 -10 -11 -10 -10 -9 -9 -9 -9 -9 -9 -8 -8 -8 -8 -8 -7
-4 -4 -5 -5 -5 -5 -6 -7 -7 -7 -7 -8 -8 -8 -8 -9 -9 -10 -11 -11 -11 -12 -12 -11 -11 -10 -10 -9 -10 -10 -10 -10 -10 -9 -9 -9 -9 -8
-5 -5 -5 -6 -6 -6 -6 -7 -7 -7 -7 -8 -8 -9 -9 -10 -10 -11 -11 -12 -12 -11 -12 -12 -12 -11 -10 -10 -10 -10 -10 -11 -10 -10 -10 -10 -10 -10
-6 -6 -6 -6 -7 -7 -7 -7 -8 -8 -9 -9 -9 -10 -10 -10 -10 -10 -11 -12 -12 -12 -12 -13 -12 -11 -11 -11 -11 -11 -11 -11 -11 -11 -11 -11 -11 -11
-7 -7 -7 -7 -7 -8 -8 -8 -9 -10 -10 -10 -10 -10 -10 -10 -11 -11 -11 -12 -12 -13 -12 -12 -12 -11 -11 -12 -12 -12 -12 -12 -12 -12 -12 -12 -12 -12
-7 -7 -7 -7 -8 -8 -9 -10 -10 -10 -10 -10 -10 -10 -11 -11 -12 -12 -12 -12 -12 -12 -12 -11 -12 -12 -12 -12 -13 -13 -13 -13 -13 -13 -13 -13 -13 -12
-8 -8 -8 -8 -9 -9 -10 -10 -11 -11 -11 -11 -11 -11 -11 -11 -12 -12 -12 -12 -12 -13 -12 -12 -12 -13 -13 -13 -13 -13 -13 -13 -14 -14 -14 -14 -14 -14
-8 -8 -9 -9 -10 -10 -11 -11 -11 -11 -11 -11 -11 -12 -12 -12 -12 -12 -12 -13 -13 -13 -13 -13 -13 -13 -13 -13 -13 -13 -13 -13 -14 -14 -15 -15 -15 -14
-8 -9 -9 -10 -10 -11 -11 -11 -11 -11 -12 -12 -12 -12 -12 -13 -13 -13 -13 -13 -13 -13 -14 -14 -14 -14 -14 -13 -13 -14 -14 -15 -15 -15 -16 -16 -16 -16
-9 -10 -10 -11 -11 -11 -11 -11 -12 -12 -12 -12 -12 -13 -13 -13 -13 -13 -13 -14 -14 -15 -15 -15 -15 -15 -15 -15 -15 -15 -15 -16 -16 -16 -16 -16 -16 -17
-10 -11 -11 -11 -12 -12 -12 -12 -12 -12 -12 -13 -13 -13 -13 -14 -14 -14 -14 -15 -15 -16 -16 -16 -16 -17 -17 -17 -16 -16 -16 -16 -17 -17 -17 -17 -17 -17
-11 -11 -11 -12 -12 -12 -12 -12 -12 -12 -13 -13 -14 -14 -14 -14 -14 -15 -15 -16 -16 -17 -17 -18 -18 -18 -18 -18 -17 -17 -18 -18 -18 -18 -18 -17 -18 -18
-11 -11 -12 -12 -12 -12 -12 -12 -13 -13 -13 -14 -14 -14 -14 -15 -15 -16 -16 -17 -16 -16 -16 -18 -18 -18 -18 -18 -18 -19 -18 -19 -19 -19 -19 -18 -19 -20
-12 -12 -12 -12 -12 -12 -13 -13 -13 -14 -14 -14 -14 -14 -15 -16 -16 -16 -16 -16 -16 -17 -18 -18 -19 -19 -19 -19 -20 -19 -20 -20 -20 -20 -20 -20 -20 -20
-12 -12 -12 -12 -13 -13 -13 -13 -13 -14 -14 -14 -15 -16 -16 -16 -16 -16 -17 -17 -18 -18 -19 -19 -20 -20 -19 -19 -19 -21 -21 -21 -21 -21 -21 -21 -21 -20
-12 -12 -12 -12 -12 -13 -13 -13 -13 -14 -15 -15 -16 -16 -15 -16 -16 -17 -18 -18 -19 -19 -19 -20 -21 -21 -21 -20 -20 -20 -22 -22 -22 -22 -22 -22 -22 -21
-12 -12 -12 -12 -13 -13 -13 -14 -14 -14 -15 -15 -15 -15 -16 -17 -17 -18 -19 -19 -20 -20 -20 -21 -21 -22 -22 -22 -21 -21 -22 -23 -24 -23 -23 -23 -22 -21
-12 -12 -12 -12 -13 -13 -13 -13 -13 -14 -14 -15 -15 -16 -17 -17 -18 -19 -20 -20 -20 -21 -21 -21 -22 -22 -22 -23 -22 -22 -22 -23 -24 -24 -24 -25 -24 -23
-12 -12 -12 -12 -12 -12 -12 -13 -13 -14 -14 -15 -16 -17 -18 -18 -19 -20 -20 -21 -21 -21 -22 -22 -22 -23 -23 -24 -24 -23 -23 -23 -23 -23 -24 -25 -25 -24